I4GOS-3 Weather Reports


Display with metric or nautical units.
time (UTC)temp
F
wind
direction
speed
MPH
gust
MPH
rain 1hr
in
rain 24hr
in
rain mn
in
humidity
%
barometer
mb
20260504015859 59 145 0.0 0.0 0.00 0.00 0.00 72 1017.1
20260504015359 59 152 0.0 0.0 0.00 0.00 0.00 72 1017.1
20260504014859 59 152 0.0 0.0 0.00 0.00 0.00 72 1017.0
20260504014358 59 152 0.0 0.0 0.00 0.00 0.00 71 1017.0
20260504013858 59 152 0.0 0.0 0.00 0.00 0.00 71 1017.0
20260504013358 59 152 0.0 0.0 0.00 0.00 0.00 71 1017.0
20260504012858 59 152 0.0 0.0 0.00 0.00 0.00 71 1017.0
20260504012358 59 152 0.0 0.0 0.00 0.00 0.00 71 1017.0
20260504011857 59 186 0.0 0.0 0.00 0.00 0.00 71 1017.0
20260504011357 59 197 0.0 0.0 0.00 0.00 0.00 71 1017.0
20260504010857 59 197 0.0 0.0 0.00 0.00 0.00 71 1017.0
20260504010357 59 197 0.0 0.0 0.00 0.00 0.00 71 1017.0
20260504005856 60 197 0.0 0.0 0.00 0.00 0.00 71 1017.0
20260504005356 60 197 0.0 0.0 0.00 0.00 0.00 71 1017.0
20260504004356 60 197 0.0 0.0 0.00 0.00 0.00 71 1017.0
20260504003856 60 197 0.0 0.0 0.00 0.00 0.00 71 1017.0
20260504003355 60 197 0.0 0.0 0.00 0.00 0.00 71 1017.1
20260504002855 60 197 0.0 0.0 0.00 0.00 0.00 71 1017.0
20260504002355 60 197 0.0 0.0 0.00 0.00 0.00 70 1017.1
20260504001855 60 197 0.0 0.0 0.00 0.00 0.00 70 1017.1
20260504001354 60 197 0.0 0.0 0.00 0.00 0.00 70 1017.1
20260504000854 60 197 0.0 0.0 0.00 0.00 0.00 70 1017.1
20260504000354 60 197 0.0 0.0 0.00 0.00 0.00 70 1017.1
20260503235854 60 197 0.0 0.0 0.00 0.00 0.00 70 1017.1
20260503235353 60 197 0.0 0.0 0.00 0.00 0.00 70 1017.1
20260503234853 60 197 0.0 0.0 0.00 0.00 0.00 70 1017.0
20260503234353 60 197 0.0 0.0 0.00 0.00 0.00 69 1017.0
20260503233853 61 197 0.0 0.0 0.00 0.00 0.00 69 1017.0
20260503233353 61 197 0.0 0.0 0.00 0.00 0.00 69 1017.0
20260503232852 61 197 0.0 0.0 0.00 0.00 0.00 69 1017.1
20260503232352 61 197 0.0 0.0 0.00 0.00 0.00 69 1017.1
20260503231852 61 197 0.0 0.0 0.00 0.00 0.00 68 1017.1
20260503231352 61 197 0.0 0.0 0.00 0.00 0.00 68 1017.1
20260503230851 61 197 0.0 0.0 0.00 0.00 0.00 68 1017.1
20260503230351 61 197 0.0 0.0 0.00 0.00 0.00 67 1017.0
20260503225851 62 197 0.0 0.0 0.00 0.00 0.00 67 1017.1
20260503225351 62 197 0.0 0.0 0.00 0.00 0.00 67 1017.1
20260503224850 62 197 0.0 0.0 0.00 0.00 0.00 67 1017.1
20260503224350 62 197 0.0 0.0 0.00 0.00 0.00 67 1017.1
20260503223850 62 197 0.0 0.0 0.00 0.00 0.00 67 1017.2
20260503223350 62 197 0.0 0.0 0.00 0.00 0.00 67 1017.2
20260503222846 62 197 0.0 0.0 0.00 0.00 0.00 67 1017.2
20260503222346 62 197 0.0 0.0 0.00 0.00 0.00 67 1017.2
20260503221845 62 197 0.0 0.0 0.00 0.00 0.00 67 1017.2
20260503221345 62 196 0.0 0.0 0.00 0.00 0.00 67 1017.3
20260503220419 62 194 0.0 0.0 0.00 0.00 0.00 68 1017.2
20260503220345 62 194 0.0 0.0 0.00 0.00 0.00 68 1017.2
20260503215845 62 194 0.0 0.0 0.00 0.00 0.00 68 1017.3
20260503215344 62 205 0.0 0.0 0.00 0.00 0.00 68 1017.3
20260503214844 62 205 0.0 0.0 0.00 0.00 0.00 68 1017.3
20260503214344 62 205 0.0 0.0 0.00 0.00 0.00 68 1017.2
20260503213844 62 208 0.0 0.0 0.00 0.00 0.00 68 1017.3
20260503213343 62 205 0.0 0.0 0.00 0.00 0.00 68 1017.2
20260503212843 62 216 0.0 0.0 0.00 0.00 0.00 68 1017.3
20260503212343 62 242 0.0 0.0 0.00 0.00 0.00 68 1017.1
20260503211843 62 239 0.0 0.0 0.00 0.00 0.00 69 1017.1
20260503211342 62 244 0.0 0.0 0.00 0.00 0.00 69 1017.1
20260503210842 62 244 0.0 0.0 0.00 0.00 0.00 69 1017.1
20260503210342 62 246 0.0 0.0 0.00 0.00 0.00 69 1017.0
20260503205842 62 246 0.0 0.0 0.00 0.00 0.00 68 1017.0
20260503205500 63 266 3.0 0.0 0.00 0.00 0.00 67 1017.0
20260503205425 63 266 3.0 0.0 0.00 0.00 0.00 67 1017.0
20260503205341 63 266 3.0 0.0 0.00 0.00 0.00 67 1017.0
20260503204841 63 133 0.0 0.0 0.00 0.00 0.00 67 1016.9
20260503204420 63 133 0.0 0.0 0.00 0.00 0.00 67 1016.9
20260503204340 63 133 0.0 0.0 0.00 0.00 0.00 67 1016.9
20260503203839 63 133 0.0 0.0 0.00 0.00 0.00 67 1016.8
20260503202835 63 72 0.0 0.0 0.00 0.00 0.00 67 1016.8
20260503202330 64 72 0.0 0.0 0.00 0.00 0.00 67 1016.8
20260503201830 64 72 0.0 0.0 0.00 0.00 0.00 67 1016.8
20260503201330 64 72 0.0 0.0 0.00 0.00 0.00 68 1016.9
20260503200829 65 72 0.0 0.0 0.00 0.00 0.00 67 1016.9
20260503200329 65 72 0.0 0.0 0.00 0.00 0.00 67 1016.9
20260503195829 65 72 0.0 0.0 0.00 0.00 0.00 67 1016.8
20260503195329 66 72 0.0 0.0 0.00 0.00 0.00 66 1016.9
20260503194828 66 72 0.0 0.0 0.00 0.00 0.00 66 1016.8
20260503194328 66 72 0.0 0.0 0.00 0.00 0.00 66 1016.8
20260503193822 66 72 0.0 0.0 0.00 0.00 0.00 66 1016.7
20260503193321 66 72 0.0 0.0 0.00 0.00 0.00 65 1016.8
20260503192907 67 72 0.0 0.0 0.00 0.00 0.00 65 1016.8
20260503192821 67 72 0.0 0.0 0.00 0.00 0.00 65 1016.8
20260503192314 67 72 0.0 0.0 0.00 0.00 0.00 65 1016.8
20260503191808 67 72 0.0 0.0 0.00 0.00 0.00 65 1016.8
20260503191308 67 72 0.0 0.0 0.00 0.00 0.00 65 1016.8
20260503190808 68 71 0.0 0.0 0.00 0.00 0.00 66 1016.7
20260503190307 68 72 0.0 0.0 0.00 0.00 0.00 65 1016.7
20260503185807 68 72 0.0 0.0 0.00 0.00 0.00 64 1016.6
20260503185307 68 73 0.0 0.0 0.00 0.00 0.00 64 1016.6
20260503184806 68 72 0.0 0.0 0.00 0.00 0.00 64 1016.7
20260503184305 69 72 0.0 0.0 0.00 0.00 0.00 64 1016.6
20260503183805 69 72 0.0 0.0 0.00 0.00 0.00 64 1016.5
20260503183332 69 72 0.0 0.0 0.00 0.00 0.00 63 1016.5
20260503183255 69 72 0.0 0.0 0.00 0.00 0.00 63 1016.5
20260503182802 69 72 0.0 0.0 0.00 0.00 0.00 63 1016.4
20260503182253 69 72 0.0 0.0 0.00 0.00 0.00 63 1016.5
20260503181753 69 72 0.0 0.0 0.00 0.00 0.00 62 1016.4
20260503181253 69 72 0.0 0.0 0.00 0.00 0.00 62 1016.3
20260503180835 70 72 0.0 0.0 0.00 0.00 0.00 61 1016.3
20260503180752 70 72 0.0 0.0 0.00 0.00 0.00 61 1016.3
20260503180331 70 72 0.0 0.0 0.00 0.00 0.00 61 1016.3
20260503180250 70 72 0.0 0.0 0.00 0.00 0.00 61 1016.3
20260503175750 70 81 0.0 0.0 0.00 0.00 0.00 60 1016.3
20260503174749 70 71 4.0 0.0 0.00 0.00 0.00 58 1016.3
20260503174249 70 81 0.0 0.0 0.00 0.00 0.00 58 1016.3
20260503173249 70 58 3.0 0.0 0.00 0.00 0.00 57 1016.4
20260503172748 71 54 2.0 0.0 0.00 0.00 0.00 56 1016.4
20260503172245 70 81 0.0 0.0 0.00 0.00 0.00 56 1016.3
20260503171819 70 80 3.0 0.0 0.00 0.00 0.00 55 1016.4
20260503171744 70 80 3.0 0.0 0.00 0.00 0.00 55 1016.4
20260503171241 71 67 2.0 0.0 0.00 0.00 0.00 55 1016.4
20260503170741 71 52 0.0 0.0 0.00 0.00 0.00 54 1016.5
20260503170240 71 98 3.0 0.0 0.00 0.00 0.00 54 1016.5
20260503150703 70 65 7.0 0.0 0.00 0.00 0.00 59 1017.1
20260503150203 70 43 8.0 0.0 0.00 0.00 0.00 60 1017.1
20260503140230 71 59 8.0 0.0 0.00 0.00 0.00 62 1017.6
20260503140152 71 59 8.0 0.0 0.00 0.00 0.00 62 1017.6
20260503131137 71 60 11.0 0.0 0.00 0.00 0.00 57 1017.9
20260503130637 71 58 5.0 0.0 0.00 0.00 0.00 55 1018.0
20260503130136 71 60 2.0 0.0 0.00 0.00 0.00 54 1018.1
20260503120134 71 26 0.0 0.0 0.00 0.00 0.00 57 1018.5
20260503110819 70 38 7.0 0.0 0.00 0.00 0.00 52 1018.7
20260503110631 70 38 7.0 0.0 0.00 0.00 0.00 52 1018.7
20260503110131 70 26 5.0 0.0 0.00 0.00 0.00 53 1018.7
20260503100116 69 359 0.0 0.0 0.00 0.00 0.00 49 1019.2
20260503090110 69 343 0.0 0.0 0.00 0.00 0.00 45 1019.7
20260503081608 68 8 0.0 0.0 0.00 0.00 0.00 48 1019.7
20260503081107 68 328 0.0 0.0 0.00 0.00 0.00 48 1019.7
20260503080607 68 359 0.0 0.0 0.00 0.00 0.00 48 1019.8
20260503080228 68 21 0.0 0.0 0.00 0.00 0.00 49 1019.8
20260503080107 68 21 0.0 0.0 0.00 0.00 0.00 49 1019.8
20260503072605 66 226 0.0 0.0 0.00 0.00 0.00 52 1019.8
20260503072202 65 226 0.0 0.0 0.00 0.00 0.00 53 1019.9
20260503072105 65 226 0.0 0.0 0.00 0.00 0.00 53 1019.9
20260503071649 65 224 0.0 0.0 0.00 0.00 0.00 54 1019.9
20260503071602 65 224 0.0 0.0 0.00 0.00 0.00 54 1019.9
20260503071138 65 226 0.0 0.0 0.00 0.00 0.00 55 1019.9
20260503071102 65 226 0.0 0.0 0.00 0.00 0.00 55 1019.9
20260503070602 64 230 0.0 0.0 0.00 0.00 0.00 57 1020.0
20260503070158 63 228 0.0 0.0 0.00 0.00 0.00 59 1019.9
20260503055043 55 173 0.0 0.0 0.00 0.00 0.00 66 1019.7
20260503054540 55 173 0.0 0.0 0.00 0.00 0.00 67 1019.7
20260503054040 54 173 0.0 0.0 0.00 0.00 0.00 68 1019.7
20260503053540 53 173 0.0 0.0 0.00 0.00 0.00 68 1019.5
20260503053039 53 173 0.0 0.0 0.00 0.00 0.00 70 1019.6
20260503052539 52 173 0.0 0.0 0.00 0.00 0.00 70 1019.6
20260503052039 52 173 0.0 0.0 0.00 0.00 0.00 71 1019.6
20260503051539 52 173 0.0 0.0 0.00 0.00 0.00 71 1019.6
20260503051038 51 173 0.0 0.0 0.00 0.00 0.00 72 1019.6
20260503050538 51 173 0.0 0.0 0.00 0.00 0.00 72 1019.6
20260503050038 51 173 0.0 0.0 0.00 0.00 0.00 72 1019.5
20260503045036 51 173 0.0 0.0 0.00 0.00 0.00 72 1019.5
20260503044536 51 173 0.0 0.0 0.00 0.00 0.00 72 1019.5
20260503044035 50 173 0.0 0.0 0.00 0.00 0.00 72 1019.5
20260503043535 50 173 0.0 0.0 0.00 0.00 0.00 72 1019.4
20260503043035 50 173 0.0 0.0 0.00 0.00 0.00 72 1019.4
20260503042535 50 173 0.0 0.0 0.00 0.00 0.00 72 1019.5
20260503042036 50 173 0.0 0.0 0.00 0.00 0.00 72 1019.5
20260503041534 50 173 0.0 0.0 0.00 0.00 0.00 71 1019.4
20260503041034 50 173 0.0 0.0 0.00 0.00 0.00 71 1019.3
20260503040534 50 173 0.0 0.0 0.00 0.00 0.00 71 1019.4
20260503035533 50 173 0.0 0.0 0.00 0.00 0.00 72 1019.4
20260503035033 50 173 0.0 0.0 0.00 0.00 0.00 72 1019.4
20260503034533 50 173 0.0 0.0 0.00 0.00 0.00 72 1019.4
20260503034033 50 173 0.0 0.0 0.00 0.00 0.00 72 1019.4
20260503033532 50 173 0.0 0.0 0.00 0.00 0.00 72 1019.4
20260503033032 50 173 0.0 0.0 0.00 0.00 0.00 72 1019.4
20260503032532 50 173 0.0 0.0 0.00 0.00 0.00 71 1019.4
20260503032032 50 173 0.0 0.0 0.00 0.00 0.00 71 1019.4
20260503031531 50 173 0.0 0.0 0.00 0.00 0.00 71 1019.4
20260503031031 50 173 0.0 0.0 0.00 0.00 0.00 71 1019.5
20260503030531 50 173 0.0 0.0 0.00 0.00 0.00 71 1019.5
20260503030031 51 173 0.0 0.0 0.00 0.00 0.00 71 1019.5
20260503025530 50 173 0.0 0.0 0.00 0.00 0.00 71 1019.5
20260503025030 51 173 0.0 0.0 0.00 0.00 0.00 71 1019.5
20260503024530 51 173 0.0 0.0 0.00 0.00 0.00 71 1019.5
20260503024030 51 173 0.0 0.0 0.00 0.00 0.00 71 1019.6
20260503023530 51 173 0.0 0.0 0.00 0.00 0.00 70 1019.6
20260503023029 51 173 0.0 0.0 0.00 0.00 0.00 71 1019.6
20260503022529 51 173 0.0 0.0 0.00 0.00 0.00 70 1019.6
20260503022029 51 173 0.0 0.0 0.00 0.00 0.00 70 1019.6
20260503021529 51 173 0.0 0.0 0.00 0.00 0.00 70 1019.6
20260503021028 52 173 0.0 0.0 0.00 0.00 0.00 70 1019.6
20260503020528 51 173 0.0 0.0 0.00 0.00 0.00 70 1019.6